SCP
0 0 0 0 0 0 0 0 0 0 0 0 0 0 0 0 0 0 0 0 0 0 0 1 1 1 0 0 0 0 0 0 0 0 0 0 0 0 0 0 0 0 0
1 1 0 0 0 0 0 0 0 0 0 0 0 0 0 0 0 0 0 0 0 1 0 1 1 1 1 1 1 1 1 0 0 1 1 0 0 0 0 0 0 0 0
2 1 1 0 0 0 0 0 0 0 0 0 0 0 0 0 0 0 1 0 1 1 1 1 1 1 1 1 1 1 1 1 0 1 1 0 0 0 1 0 0 0 0
2 1 1 1 1 0 0 0 0 0 0 0 0 0 0 0 1 1 1 1 1 1 1 1 1 2 1 1 2 2 2 1 1 1 1 1 1 1 0 0 0 0 0
2 2 2 1 1 1 1 0 0 0 0 0 0 0 0 0 1 1 1 1 2 1 1 1 1 1 1 1 2 3 2 2 2 1 1 1 1 1 1 1 0 0 0
1 2 2 2 1 1 1 1 0 0 0 0 0 0 0 1 1 1 1 2 1 1 1 1 2 2 1 2 2 3 2 2 1 2 1 1 1 1 1 1 0 0 0
1 2 2 2 2 2 2 2 2 1 1 0 1 1 0 0 1 2 1 1 1 1 1 1 2 2 2 1 2 2 2 2 4 3 2 1 1 1 1 0 0 0 0
2 2 2 2 3 2 2 1 2 2 1 1 1 1 1 1 0 1 1 1 1 2 2 2 2 1 1 2 2 2 3 2 3 1 1 1 1 1 0 0 0 0 0
2 2 2 2 2 3 2 2 2 1 1 1 1 1 1 1 0 0 1 2 2 2 2 2 2 2 1 2 3 2 1 1 1 1 0 0 0 0 0 0 0 0 0
0 2 2 2 2 2 2 2 2 2 1 1 0 1 1 0 0 0 2 2 2 2 2 2 2 2 2 2 2 1 0 0 1 1 0 0 0 0 0 0 0 0 0
0 0 0 2 2 2 2 2 2 2 2 2 2 1 1 1 3 2 1 2 2 2 2 2 2 2 1 1 1 0 0 0 0 0 0 0 0 0 0 0 0 0 0
0 0 0 0 0 2 2 2 2 2 2 2 2 1 1 1 1 4 3 2 1 2 3 2 2 1 1 0 0 0 0 0 0 0 0 -0 -0 0 0 0 0 0 0
0 0 0 0 0 0 1 2 2 2 1 2 2 2 1 1 1 1 2 1 2 1 2 2 1 1 1 0 0 0 0 0 0 0 0 0 0 0 0 0 0 0 -0
-0 -0 -0 0 0 0 0 1 2 1 2 2 1 0 2 0 0 0 0 0 1 1 0 1 0 1 1 0 0 0 0 0 0 0 0 0 0 0 0 0 0 0 0
-0 -0 -0 -0 0 0 0 1 1 1 1 0 0 0 0 0 0 0 0 0 1 0 1 0 1 0 0 0 0 0 0 0 0 0 0 0 0 0 0 0 0 0 0
-0 -0 -0 -0 -0 -0 -0 0 0 0 0 0 0 0 0 0 0 0 0 0 0 0 0 -0 0 0 0 1 1 1 0 0 0 0 0 0 0 0 0 0 0 0 0
0 -0 -0 -0 -0 -0 -0 -0 -0 0 0 0 0 0 0 0 0 0 0 0 0 0 0 0 0 0 0 1 0 0 0 0 0 0 0 0 0 0 0 0 0 0 0
0 -0 -0 -0 -0 -0 0 -0 -0 -0 0 0 0 0 0 0 0 0 0 0 0 0 0 0 0 0 0 0 0 0 0 0 0 0 0 0 0 0 0 0 0 0 0
0 0 -0 -0 -0 -0 0 0 0 0 0 1 0 0 0 0 0 0 0 0 0 0 0 0 0 0 0 0 0 0 0 0 0 0 0 0 0 0 0 0 0 0 0
0 0 0 -0 -0 -0 0 0 0 0 0 0 0 0 0 0 0 0 0 -0 -0 -0 -0 0 0 0 0 0 0 0 0 0 0 0 0 0 0 0 0 0 0 0 0
0 0 -0 -0 -0 -0 -0 -0 0 0 0 0 0 0 0 0 0 0 0 0 0 0 0 0 0 0 0 0 0 0 0 0 0 0 0 0 0 0 0 0 0 0 0
0 0 0 0 0 -0 -0 -0 -0 0 0 0 0 0 0 0 0 0 0 0 0 0 0 0 0 0 0 0 0 0 0 0 0 0 0 0 0 0 0 0 0 0 0
0 0 0 0 0 -0 -0 0 -0 0 0 0 -0 -0 -0 -0 -0 0 0 0 0 0 0 0 0 0 0 0 0 0 0 0 0 0 0 0 0 0 0 0 0 0 0
0 0 0 0 0 -0 -0 0 0 0 0 -0 -0 -0 -0 0 0 0 0 0 0 0 0 0 0 0 0 0 0 0 0 0 0 0 0 0 0 0 0 0 0 0 0
0 0 0 0 0 0 -0 -0 0 0 0 0 0 0 0 0 -0 0 0 0 0 0 0 0 0 0 0 0 0 0 0 0 0 0 0 0 0 0 0 0 0 0 0
0 0 0 0 0 -0 -0 -0 -0 -0 -0 -0 0 0 -0 0 0 0 0 0 0 0 0 0 0 0 0 0 0 0 0 0 0 0 0 0 0 0 0 0 0 0 0
Wind_Speed_500mb
66 64 64 63 61 60 61 60 57 54 54 52 51 50 48 47 45 43 40 36 36 31 25 26 26 30 30 27 24 24 25 23 24 26 22 23 26 26 29 30 33 36 31
67 70 71 71 71 67 66 67 68 65 63 60 56 57 53 47 51 49 45 41 38 35 34 31 29 30 34 33 30 27 26 26 28 27 24 26 29 30 31 32 33 37 38
63 69 71 77 79 73 72 70 70 71 70 68 62 57 53 52 51 50 46 49 49 46 46 37 34 34 37 37 34 30 29 27 27 26 27 29 31 33 38 36 37 37 40
49 54 61 73 79 77 75 71 69 69 71 73 69 66 62 52 46 50 57 60 56 49 50 44 42 38 41 41 41 35 30 27 23 20 23 31 34 37 41 42 40 41 39
60 62 62 64 65 75 82 78 76 73 71 69 71 74 68 61 58 54 53 57 59 54 47 43 44 41 45 47 46 39 33 29 22 19 21 25 30 34 40 48 49 47 45
67 69 73 73 73 73 80 89 84 80 81 76 76 75 76 66 64 64 61 56 57 55 49 40 48 46 48 52 52 44 39 36 32 28 30 30 32 36 39 41 48 52 52
67 78 84 83 83 82 85 88 93 90 88 83 80 81 82 78 72 75 70 69 69 66 57 60 52 51 54 57 59 56 45 48 49 42 37 33 34 44 55 52 50 47 53
66 75 83 89 95 94 93 92 95 100 101 94 90 87 72 88 87 81 82 80 77 72 67 64 60 58 58 60 64 64 67 60 61 53 52 55 57 73 69 69 64 52 49
52 64 76 87 95 99 101 96 103 101 108 109 102 85 44 63 67 80 93 89 86 85 83 72 62 61 63 59 65 70 71 64 64 52 55 62 82 66 73 73 70 57 47
63 58 58 71 89 91 100 106 104 109 109 103 92 110 104 81 52 60 74 99 93 93 89 81 70 67 66 69 70 69 73 70 65 54 56 65 59 52 49 53 45 46 52
73 75 76 76 75 82 99 102 109 111 112 113 108 104 107 115 101 75 49 62 91 105 92 84 80 74 68 69 69 68 68 69 73 72 67 64 57 46 39 39 41 49 49
68 68 70 70 71 74 83 95 106 111 113 117 118 117 105 88 92 99 89 85 82 101 94 81 82 81 71 65 69 68 68 64 71 77 74 53 42 40 39 40 41 41 40
71 75 80 80 76 74 72 76 90 104 107 109 115 126 115 103 84 79 93 87 80 86 73 71 73 73 66 63 66 65 65 74 69 52 45 34 39 44 47 45 41 39 42
73 68 69 66 75 76 71 74 74 82 98 102 95 84 71 79 97 47 43 88 81 77 63 67 67 69 71 63 64 63 70 57 44 33 35 38 45 44 46 42 39 40 42
74 73 66 64 61 67 73 78 80 79 80 90 91 92 44 55 32 47 21 87 38 67 77 75 68 60 59 55 56 55 54 49 38 37 39 43 44 43 42 41 40 37 39
71 69 72 72 70 69 71 75 83 85 82 91 88 81 88 85 111 117 89 81 61 57 64 81 71 54 47 39 34 38 43 41 43 44 44 42 45 39 43 43 39 36 38
63 70 75 79 78 79 80 79 79 78 85 92 97 95 96 93 103 99 94 86 84 77 72 73 47 49 43 30 34 35 38 44 43 45 42 42 40 40 40 39 34 36 36
61 65 68 69 75 79 82 82 78 72 78 85 93 93 97 98 98 76 73 83 79 108 80 58 55 58 34 33 28 32 32 33 38 39 39 40 43 37 33 33 28 30 34
67 63 71 69 75 78 78 81 87 81 85 80 82 88 102 95 70 65 68 68 78 92 78 67 72 47 35 29 24 24 30 33 37 36 34 37 37 31 24 28 25 24 21
67 60 66 67 74 83 84 88 94 79 83 73 79 97 92 68 57 54 56 56 51 65 78 81 63 41 33 28 28 29 30 33 34 35 31 32 29 28 31 31 26 25 28
61 59 59 64 70 76 80 79 83 82 93 65 77 74 71 56 56 66 67 48 45 62 62 60 51 41 32 29 27 27 30 30 29 26 28 30 30 32 32 31 34 33 29
55 54 57 59 66 67 67 69 74 62 59 45 60 68 72 72 70 62 50 30 44 49 49 46 37 34 35 38 41 44 48 46 44 38 39 37 37 40 33 31 34 32 33
64 54 51 52 58 50 53 53 75 29 32 42 50 51 72 65 54 52 34 43 37 34 29 29 33 31 29 25 29 35 37 36 37 31 33 38 28 32 30 31 31 27 17
79 76 52 52 50 48 49 49 26 38 29 43 45 42 52 46 52 52 46 46 36 28 25 21 18 15 13 16 22 28 34 37 38 37 33 46 33 29 24 25 25 32 26
63 59 56 52 45 41 47 25 21 7 48 39 26 27 40 47 51 48 45 39 31 22 15 10 9 12 20 23 28 35 40 37 41 36 28 26 26 19 20 21 26 41 31
54 55 73 51 40 38 40 30 40 46 51 46 32 37 49 52 46 37 28 29 20 12 2 7 13 19 26 31 35 39 37 42 36 27 19 16 10 9 8 19 23 33 45
Wind_Direction_500mb
236 237 238 238 237 235 234 233 233 232 233 231 232 233 228 229 225 217 222 221 225 223 242 262 271 269 266 264 262 261 265 270 274 276 274 272 268 266 268 270 261 257 257
246 245 248 247 245 241 241 241 240 239 238 238 236 235 234 238 230 226 233 237 238 237 241 250 257 265 261 257 251 250 259 267 273 277 287 282 282 278 274 272 271 264 258
254 252 252 253 251 248 247 247 249 249 248 244 242 239 240 242 238 235 241 246 244 248 249 245 255 260 256 253 250 254 262 264 265 273 284 287 287 287 282 277 275 273 264
259 260 257 255 256 256 255 256 256 257 254 250 247 244 242 238 239 238 239 244 249 250 253 250 248 253 253 247 241 245 253 253 250 272 286 289 292 293 288 284 278 272 271
259 260 260 261 262 257 254 252 251 249 251 249 248 246 245 245 242 240 237 241 241 243 245 251 250 250 255 252 238 238 240 239 243 261 282 288 291 296 298 290 280 276 269
270 260 258 259 262 260 256 252 250 249 249 250 247 248 245 245 244 243 238 238 235 239 242 242 249 252 255 255 242 235 234 237 248 257 260 270 282 291 286 288 286 276 271
270 271 269 265 259 256 260 257 251 251 251 250 252 250 252 249 249 244 242 239 240 242 240 248 243 247 255 259 245 237 244 251 251 257 266 280 293 293 290 287 280 279 268
269 267 269 272 271 266 258 257 254 248 250 251 249 248 246 250 249 246 240 240 243 245 246 250 250 255 258 260 245 246 254 260 256 261 270 282 292 295 278 288 286 273 269
284 274 269 271 271 272 270 263 256 252 248 249 245 238 240 245 253 256 246 241 241 244 246 245 246 250 252 252 251 253 257 258 257 265 285 287 289 289 294 278 278 272 267
278 280 286 278 272 271 271 271 266 257 254 249 245 244 241 246 252 253 254 245 242 240 241 244 246 248 247 250 252 255 262 261 253 273 287 290 301 300 287 285 268 267 262
285 286 281 277 283 281 272 272 270 265 262 258 246 243 243 243 242 247 261 262 252 242 240 244 244 249 243 244 253 263 266 266 264 274 282 288 295 294 290 291 287 273 254
301 297 297 294 287 283 281 278 273 271 267 264 263 251 237 239 239 236 242 246 268 254 240 237 236 240 240 243 253 263 269 267 273 277 276 280 292 299 305 291 282 276 257
304 306 304 297 296 291 287 283 277 273 270 266 266 262 248 240 243 248 241 240 233 249 232 228 231 234 235 243 255 262 266 272 273 267 260 281 296 302 294 301 277 269 251
304 312 316 305 296 297 294 292 289 277 272 271 272 263 233 268 230 248 6 262 234 246 247 238 236 233 233 242 256 262 262 256 257 248 261 286 304 301 295 292 283 267 260
296 305 315 317 302 296 294 288 284 282 276 267 260 259 253 232 267 308 311 335 261 245 245 249 237 235 236 248 252 249 244 253 253 250 260 281 299 293 294 289 293 263 258
302 306 312 314 322 311 301 292 287 281 277 271 263 266 259 268 261 262 288 268 293 272 254 266 245 239 240 238 239 249 251 258 247 253 261 280 283 290 292 290 287 266 251
301 307 309 310 311 315 318 304 298 288 276 273 269 265 266 259 252 262 257 259 256 236 249 240 253 246 235 238 246 247 245 253 259 263 268 270 279 287 289 288 281 269 249
298 304 312 310 307 310 314 309 294 301 277 268 268 265 260 256 246 250 247 248 238 212 228 243 254 241 236 241 252 247 248 253 255 259 268 269 279 282 274 280 282 261 247
292 298 307 309 312 309 308 313 299 290 288 264 261 261 257 247 233 234 225 214 221 222 228 223 242 234 230 233 227 237 249 247 245 257 265 270 278 271 280 279 283 274 248
286 294 297 304 310 310 309 304 301 290 293 267 261 256 251 227 225 230 205 193 182 191 214 227 230 228 222 222 230 242 252 251 259 268 252 264 265 258 274 282 276 273 265
289 293 294 300 305 311 314 310 302 292 283 262 251 242 216 223 231 188 175 192 206 218 219 227 225 216 211 211 223 232 243 246 245 254 266 263 261 263 270 277 262 274 256
292 286 290 295 300 311 313 315 309 286 246 239 255 238 230 220 198 191 200 203 226 219 212 211 215 228 237 240 240 243 248 253 258 259 259 253 265 270 270 268 277 270 236
276 281 281 290 297 307 294 309 332 259 244 208 234 219 204 196 199 199 205 184 191 196 206 216 221 225 232 237 239 241 247 252 253 252 256 270 264 272 269 260 267 237 209
260 269 273 279 289 301 305 295 333 351 214 198 198 196 199 197 204 183 164 170 169 164 172 185 201 207 235 243 251 252 250 250 251 251 260 281 282 278 260 265 256 220 226
258 253 261 269 278 292 290 268 262 113 132 160 176 170 148 142 148 155 157 149 142 146 158 194 241 250 258 266 267 265 259 254 257 260 257 264 279 263 242 256 253 226 205
272 269 241 257 268 283 275 273 211 210 202 208 176 170 163 155 150 152 152 149 145 147 178 276 276 280 279 277 272 268 266 248 247 268 251 234 239 277 260 235 207 208 202
Wind_Speed_850mb
66 64 64 63 61 60 61 60 57 54 54 52 51 50 48 47 45 43 40 36 36 31 25 26 26 30 30 27 24 24 25 23 24 26 22 23 26 26 29 30 33 36 31
67 70 71 71 71 67 66 67 68 65 63 60 56 57 53 47 51 49 45 41 38 35 34 31 29 30 34 33 30 27 26 26 28 27 24 26 29 30 31 32 33 37 38
63 69 71 77 79 73 72 70 70 71 70 68 62 57 53 52 51 50 46 49 49 46 46 37 34 34 37 37 34 30 29 27 27 26 27 29 31 33 38 36 37 37 40
49 54 61 73 79 77 75 71 69 69 71 73 69 66 62 52 46 50 57 60 56 49 50 44 42 38 41 41 41 35 30 27 23 20 23 31 34 37 41 42 40 41 39
60 62 62 64 65 75 82 78 76 73 71 69 71 74 68 61 58 54 53 57 59 54 47 43 44 41 45 47 46 39 33 29 22 19 21 25 30 34 40 48 49 47 45
67 69 73 73 73 73 80 89 84 80 81 76 76 75 76 66 64 64 61 56 57 55 49 40 48 46 48 52 52 44 39 36 32 28 30 30 32 36 39 41 48 52 52
67 78 84 83 83 82 85 88 93 90 88 83 80 81 82 78 72 75 70 69 69 66 57 60 52 51 54 57 59 56 45 48 49 42 37 33 34 44 55 52 50 47 53
66 75 83 89 95 94 93 92 95 100 101 94 90 87 72 88 87 81 82 80 77 72 67 64 60 58 58 60 64 64 67 60 61 53 52 55 57 73 69 69 64 52 49
52 64 76 87 95 99 101 96 103 101 108 109 102 85 44 63 67 80 93 89 86 85 83 72 62 61 63 59 65 70 71 64 64 52 55 62 82 66 73 73 70 57 47
63 58 58 71 89 91 100 106 104 109 109 103 92 110 104 81 52 60 74 99 93 93 89 81 70 67 66 69 70 69 73 70 65 54 56 65 59 52 49 53 45 46 52
73 75 76 76 75 82 99 102 109 111 112 113 108 104 107 115 101 75 49 62 91 105 92 84 80 74 68 69 69 68 68 69 73 72 67 64 57 46 39 39 41 49 49
68 68 70 70 71 74 83 95 106 111 113 117 118 117 105 88 92 99 89 85 82 101 94 81 82 81 71 65 69 68 68 64 71 77 74 53 42 40 39 40 41 41 40
71 75 80 80 76 74 72 76 90 104 107 109 115 126 115 103 84 79 93 87 80 86 73 71 73 73 66 63 66 65 65 74 69 52 45 34 39 44 47 45 41 39 42
73 68 69 66 75 76 71 74 74 82 98 102 95 84 71 79 97 47 43 88 81 77 63 67 67 69 71 63 64 63 70 57 44 33 35 38 45 44 46 42 39 40 42
74 73 66 64 61 67 73 78 80 79 80 90 91 92 44 55 32 47 21 87 38 67 77 75 68 60 59 55 56 55 54 49 38 37 39 43 44 43 42 41 40 37 39
71 69 72 72 70 69 71 75 83 85 82 91 88 81 88 85 111 117 89 81 61 57 64 81 71 54 47 39 34 38 43 41 43 44 44 42 45 39 43 43 39 36 38
63 70 75 79 78 79 80 79 79 78 85 92 97 95 96 93 103 99 94 86 84 77 72 73 47 49 43 30 34 35 38 44 43 45 42 42 40 40 40 39 34 36 36
61 65 68 69 75 79 82 82 78 72 78 85 93 93 97 98 98 76 73 83 79 108 80 58 55 58 34 33 28 32 32 33 38 39 39 40 43 37 33 33 28 30 34
67 63 71 69 75 78 78 81 87 81 85 80 82 88 102 95 70 65 68 68 78 92 78 67 72 47 35 29 24 24 30 33 37 36 34 37 37 31 24 28 25 24 21
67 60 66 67 74 83 84 88 94 79 83 73 79 97 92 68 57 54 56 56 51 65 78 81 63 41 33 28 28 29 30 33 34 35 31 32 29 28 31 31 26 25 28
61 59 59 64 70 76 80 79 83 82 93 65 77 74 71 56 56 66 67 48 45 62 62 60 51 41 32 29 27 27 30 30 29 26 28 30 30 32 32 31 34 33 29
55 54 57 59 66 67 67 69 74 62 59 45 60 68 72 72 70 62 50 30 44 49 49 46 37 34 35 38 41 44 48 46 44 38 39 37 37 40 33 31 34 32 33
64 54 51 52 58 50 53 53 75 29 32 42 50 51 72 65 54 52 34 43 37 34 29 29 33 31 29 25 29 35 37 36 37 31 33 38 28 32 30 31 31 27 17
79 76 52 52 50 48 49 49 26 38 29 43 45 42 52 46 52 52 46 46 36 28 25 21 18 15 13 16 22 28 34 37 38 37 33 46 33 29 24 25 25 32 26
63 59 56 52 45 41 47 25 21 7 48 39 26 27 40 47 51 48 45 39 31 22 15 10 9 12 20 23 28 35 40 37 41 36 28 26 26 19 20 21 26 41 31
54 55 73 51 40 38 40 30 40 46 51 46 32 37 49 52 46 37 28 29 20 12 2 7 13 19 26 31 35 39 37 42 36 27 19 16 10 9 8 19 23 33 45
Wind_Direction_850mb
236 237 238 238 237 235 234 233 233 232 233 231 232 233 228 229 225 217 222 221 225 223 242 262 271 269 266 264 262 261 265 270 274 276 274 272 268 266 268 270 261 257 257
246 245 248 247 245 241 241 241 240 239 238 238 236 235 234 238 230 226 233 237 238 237 241 250 257 265 261 257 251 250 259 267 273 277 287 282 282 278 274 272 271 264 258
254 252 252 253 251 248 247 247 249 249 248 244 242 239 240 242 238 235 241 246 244 248 249 245 255 260 256 253 250 254 262 264 265 273 284 287 287 287 282 277 275 273 264
259 260 257 255 256 256 255 256 256 257 254 250 247 244 242 238 239 238 239 244 249 250 253 250 248 253 253 247 241 245 253 253 250 272 286 289 292 293 288 284 278 272 271
259 260 260 261 262 257 254 252 251 249 251 249 248 246 245 245 242 240 237 241 241 243 245 251 250 250 255 252 238 238 240 239 243 261 282 288 291 296 298 290 280 276 269
270 260 258 259 262 260 256 252 250 249 249 250 247 248 245 245 244 243 238 238 235 239 242 242 249 252 255 255 242 235 234 237 248 257 260 270 282 291 286 288 286 276 271
270 271 269 265 259 256 260 257 251 251 251 250 252 250 252 249 249 244 242 239 240 242 240 248 243 247 255 259 245 237 244 251 251 257 266 280 293 293 290 287 280 279 268
269 267 269 272 271 266 258 257 254 248 250 251 249 248 246 250 249 246 240 240 243 245 246 250 250 255 258 260 245 246 254 260 256 261 270 282 292 295 278 288 286 273 269
284 274 269 271 271 272 270 263 256 252 248 249 245 238 240 245 253 256 246 241 241 244 246 245 246 250 252 252 251 253 257 258 257 265 285 287 289 289 294 278 278 272 267
278 280 286 278 272 271 271 271 266 257 254 249 245 244 241 246 252 253 254 245 242 240 241 244 246 248 247 250 252 255 262 261 253 273 287 290 301 300 287 285 268 267 262
285 286 281 277 283 281 272 272 270 265 262 258 246 243 243 243 242 247 261 262 252 242 240 244 244 249 243 244 253 263 266 266 264 274 282 288 295 294 290 291 287 273 254
301 297 297 294 287 283 281 278 273 271 267 264 263 251 237 239 239 236 242 246 268 254 240 237 236 240 240 243 253 263 269 267 273 277 276 280 292 299 305 291 282 276 257
304 306 304 297 296 291 287 283 277 273 270 266 266 262 248 240 243 248 241 240 233 249 232 228 231 234 235 243 255 262 266 272 273 267 260 281 296 302 294 301 277 269 251
304 312 316 305 296 297 294 292 289 277 272 271 272 263 233 268 230 248 6 262 234 246 247 238 236 233 233 242 256 262 262 256 257 248 261 286 304 301 295 292 283 267 260
296 305 315 317 302 296 294 288 284 282 276 267 260 259 253 232 267 308 311 335 261 245 245 249 237 235 236 248 252 249 244 253 253 250 260 281 299 293 294 289 293 263 258
302 306 312 314 322 311 301 292 287 281 277 271 263 266 259 268 261 262 288 268 293 272 254 266 245 239 240 238 239 249 251 258 247 253 261 280 283 290 292 290 287 266 251
301 307 309 310 311 315 318 304 298 288 276 273 269 265 266 259 252 262 257 259 256 236 249 240 253 246 235 238 246 247 245 253 259 263 268 270 279 287 289 288 281 269 249
298 304 312 310 307 310 314 309 294 301 277 268 268 265 260 256 246 250 247 248 238 212 228 243 254 241 236 241 252 247 248 253 255 259 268 269 279 282 274 280 282 261 247
292 298 307 309 312 309 308 313 299 290 288 264 261 261 257 247 233 234 225 214 221 222 228 223 242 234 230 233 227 237 249 247 245 257 265 270 278 271 280 279 283 274 248
286 294 297 304 310 310 309 304 301 290 293 267 261 256 251 227 225 230 205 193 182 191 214 227 230 228 222 222 230 242 252 251 259 268 252 264 265 258 274 282 276 273 265
289 293 294 300 305 311 314 310 302 292 283 262 251 242 216 223 231 188 175 192 206 218 219 227 225 216 211 211 223 232 243 246 245 254 266 263 261 263 270 277 262 274 256
292 286 290 295 300 311 313 315 309 286 246 239 255 238 230 220 198 191 200 203 226 219 212 211 215 228 237 240 240 243 248 253 258 259 259 253 265 270 270 268 277 270 236
276 281 281 290 297 307 294 309 332 259 244 208 234 219 204 196 199 199 205 184 191 196 206 216 221 225 232 237 239 241 247 252 253 252 256 270 264 272 269 260 267 237 209
260 269 273 279 289 301 305 295 333 351 214 198 198 196 199 197 204 183 164 170 169 164 172 185 201 207 235 243 251 252 250 250 251 251 260 281 282 278 260 265 256 220 226
258 253 261 269 278 292 290 268 262 113 132 160 176 170 148 142 148 155 157 149 142 146 158 194 241 250 258 266 267 265 259 254 257 260 257 264 279 263 242 256 253 226 205
272 269 241 257 268 283 275 273 211 210 202 208 176 170 163 155 150 152 152 149 145 147 178 276 276 280 279 277 272 268 266 248 247 268 251 234 239 277 260 235 207 208 202